Location: Prague
(50.0830°N, 14.4670°E)
Time: 22:35:45
(UTC+02:00)

N. Korean satellite - Pass Details

Date: 05 October 2021
Orbit: 450 x 495 km, 97.3° (Epoch: 23 October)

Event Time Altitude Azimuth Distance (km) Brightness Sun altitude
Rises 05:30:58 0° 26° (NNE) 2,561 10.8 -16.4°
Reaches altitude 10° 05:33:28 10° 43° (NE) 1,683 10.1 -16.0°
Maximum altitude 05:36:12 20° 93° (E) 1,185 9.5 -15.5°
Drops below altitude 10° 05:38:56 10° 142° (SE) 1,685 9.7 -15.1°
Sets 05:41:25 0° 159° (SSE) 2,566 10.4 -14.7°
